N5GAH-13 Weather Reports


Display with metric or nautical units.
time (UTC)temp
F
wind
direction
speed
MPH
gust
MPH
rain 1hr
in
rain 24hr
in
rain mn
in
humidity
%
barometer
mb
20260503052329 55 208 3.0 5.0 0.00 0.20 0.00 70 1026.8
20260503045329 56 203 3.0 5.0 0.00 0.20 0.21 69 1026.9
20260503042329 56 199 3.0 5.0 0.00 0.20 0.21 69 1026.7
20260503025330 60 146 3.0 7.0 0.00 0.20 0.20 61 1026.3
20260503022330 61 142 3.0 5.0 0.00 0.20 0.20 57 1026.1
20260503015330 63 145 2.0 5.0 0.00 0.20 0.20 52 1026.0
20260503005330 65 215 3.0 5.0 0.00 0.20 0.19 47 1025.7
20260503002329 66 189 1.0 3.0 0.00 0.20 0.19 45 1025.6
20260502235330 68 211 4.0 7.0 0.00 0.20 0.19 43 1025.7
20260502232330 69 180 3.0 6.0 0.00 0.20 0.18 42 1025.6
20260502225329 69 240 3.0 7.0 0.00 0.20 0.18 43 1025.6
20260502222330 70 156 2.0 5.0 0.00 0.20 0.18 41 1025.6
20260502215330 70 274 3.0 9.0 0.00 0.20 0.17 39 1026.0
20260502212330 73 242 7.0 12.0 0.00 0.20 0.17 38 1026.6
20260502205330 73 205 3.0 10.0 0.00 0.20 0.16 41 1026.8
20260502202330 69 248 3.0 7.0 0.00 0.30 0.16 42 1027.1
20260502192330 69 225 4.0 10.0 0.00 0.30 0.14 43 1027.8
20260502185330 70 201 2.0 8.0 0.00 0.30 0.14 45 1028.0
20260502182330 69 193 3.0 7.0 0.00 0.30 0.13 47 1028.5
20260502162330 62 221 4.0 9.0 0.00 0.30 0.10 55 1028.9
20260502152330 58 240 7.0 14.0 0.00 0.30 0.09 62 1029.0
20260502122330 45 333 2.0 3.0 0.00 0.30 0.06 90 1027.5
20260502115329 45 332 2.0 5.0 0.00 0.30 0.06 90 1027.2
20260502112329 46 0 0.0 0.0 0.00 0.30 0.05 90 1027.0
20260502105329 46 343 2.0 3.0 0.00 0.30 0.05 90 1027.0
20260502102329 47 313 0.0 2.0 0.00 0.30 0.05 90 1026.7
20260502065329 48 295 1.0 3.0 0.00 0.30 0.02 88 1027.0
20260502062330 48 300 1.0 3.0 0.00 0.30 0.01 87 1026.8